Year,Month,Day,Hour,Minute,Value (Times are PST for temperature in C)
2013,07,19,00,00,18.60
2013,07,19,00,01,18.60
2013,07,19,00,02,18.60
2013,07,19,00,03,18.50
2013,07,19,00,04,18.50
2013,07,19,00,05,18.50
2013,07,19,00,06,18.50
2013,07,19,00,07,18.50
2013,07,19,00,08,18.50
2013,07,19,00,09,18.50
2013,07,19,00,10,18.40
2013,07,19,00,11,18.40
2013,07,19,00,12,18.40
2013,07,19,00,13,18.30
2013,07,19,00,14,18.30
2013,07,19,00,15,18.30
2013,07,19,00,16,18.30
2013,07,19,00,17,18.30
2013,07,19,00,18,18.20
2013,07,19,00,19,18.20
2013,07,19,00,20,18.20
2013,07,19,00,21,18.20
2013,07,19,00,22,18.20
2013,07,19,00,23,18.20
2013,07,19,00,24,18.20
2013,07,19,00,25,18.20
2013,07,19,00,26,18.10
2013,07,19,00,27,18.10
2013,07,19,00,28,18.10
2013,07,19,00,29,18.10
2013,07,19,00,30,18.10
2013,07,19,00,31,18.10
2013,07,19,00,32,18.10
2013,07,19,00,33,18.10
2013,07,19,00,34,18.10
2013,07,19,00,35,18.10
2013,07,19,00,36,18.10
2013,07,19,00,37,18.00
2013,07,19,00,38,18.10
2013,07,19,00,39,18.00
2013,07,19,00,40,18.00
2013,07,19,00,41,18.00
2013,07,19,00,42,18.00
2013,07,19,00,43,18.00
2013,07,19,00,44,18.00
2013,07,19,00,45,18.00
2013,07,19,00,46,18.00
2013,07,19,00,47,18.00
2013,07,19,00,48,18.00
2013,07,19,00,49,17.90
2013,07,19,00,50,17.90
2013,07,19,00,51,17.90
2013,07,19,00,52,17.90
2013,07,19,00,53,17.80
2013,07,19,00,54,17.80
2013,07,19,00,55,17.80
2013,07,19,00,56,17.80
2013,07,19,00,57,17.80
2013,07,19,00,58,17.80
2013,07,19,00,59,17.70
2013,07,19,01,00,17.70
2013,07,19,01,01,17.70
2013,07,19,01,02,17.70
2013,07,19,01,03,17.70
2013,07,19,01,04,17.70
2013,07,19,01,05,17.70
2013,07,19,01,06,17.70
2013,07,19,01,07,17.70
2013,07,19,01,08,17.70
2013,07,19,01,09,17.70
2013,07,19,01,10,17.70
2013,07,19,01,11,17.70
2013,07,19,01,12,17.70
2013,07,19,01,13,17.70
2013,07,19,01,14,17.70
2013,07,19,01,15,17.70
2013,07,19,01,16,17.70
2013,07,19,01,17,17.70
2013,07,19,01,18,17.60
2013,07,19,01,19,17.60
2013,07,19,01,20,17.60
2013,07,19,01,21,17.60
2013,07,19,01,22,17.60
2013,07,19,01,23,17.60
2013,07,19,01,24,17.60
2013,07,19,01,25,17.60
2013,07,19,01,26,17.60
2013,07,19,01,27,17.50
2013,07,19,01,28,17.50
2013,07,19,01,29,17.40
2013,07,19,01,30,17.40
2013,07,19,01,31,17.40
2013,07,19,01,32,17.40
2013,07,19,01,33,17.40
2013,07,19,01,34,17.40
2013,07,19,01,35,17.40
2013,07,19,01,36,17.40
2013,07,19,01,37,17.40
2013,07,19,01,38,17.30
2013,07,19,01,39,17.30
2013,07,19,01,40,17.30
2013,07,19,01,41,17.30
2013,07,19,01,42,17.30
2013,07,19,01,43,17.30
2013,07,19,01,44,17.30
2013,07,19,01,45,17.30
2013,07,19,01,46,17.30
2013,07,19,01,47,17.30
2013,07,19,01,48,17.30
2013,07,19,01,49,17.30
2013,07,19,01,50,17.20
2013,07,19,01,51,17.20
2013,07,19,01,52,17.20
2013,07,19,01,53,17.20
2013,07,19,01,54,17.20
2013,07,19,01,55,17.20
2013,07,19,01,56,17.20
2013,07,19,01,57,17.20
2013,07,19,01,58,17.20
2013,07,19,01,59,17.20
2013,07,19,02,00,17.20
2013,07,19,02,01,17.20
2013,07,19,02,02,17.20
2013,07,19,02,03,17.20
2013,07,19,02,04,17.20
2013,07,19,02,05,17.20
2013,07,19,02,06,17.20
2013,07,19,02,07,17.20
2013,07,19,02,08,17.20
2013,07,19,02,09,17.20
2013,07,19,02,10,17.20
2013,07,19,02,11,17.20
2013,07,19,02,12,17.20
2013,07,19,02,13,17.20
2013,07,19,02,14,17.20
2013,07,19,02,15,17.20
2013,07,19,02,16,17.20
2013,07,19,02,17,17.20
2013,07,19,02,18,17.20
2013,07,19,02,19,17.20
2013,07,19,02,20,17.20
2013,07,19,02,21,17.20
2013,07,19,02,22,17.20
2013,07,19,02,23,17.20
2013,07,19,02,24,17.20
2013,07,19,02,25,17.20
2013,07,19,02,26,17.20
2013,07,19,02,27,17.20
2013,07,19,02,28,17.20
2013,07,19,02,29,17.10
2013,07,19,02,30,17.10
2013,07,19,02,31,17.10
2013,07,19,02,32,17.20
2013,07,19,02,33,17.20
2013,07,19,02,34,17.20
2013,07,19,02,35,17.20
2013,07,19,02,36,17.20
2013,07,19,02,37,17.20
2013,07,19,02,38,17.20
2013,07,19,02,39,17.20
2013,07,19,02,40,17.20
2013,07,19,02,41,17.20
2013,07,19,02,42,17.20
2013,07,19,02,43,17.20
2013,07,19,02,44,17.20
2013,07,19,02,45,17.20
2013,07,19,02,46,17.20
2013,07,19,02,47,17.10
2013,07,19,02,48,17.10
2013,07,19,02,49,17.10
2013,07,19,02,50,17.10
2013,07,19,02,51,17.10
2013,07,19,02,52,17.10
2013,07,19,02,53,17.10
2013,07,19,02,54,17.10
2013,07,19,02,55,17.10
2013,07,19,02,56,17.10
2013,07,19,02,57,17.10
2013,07,19,02,58,17.10
2013,07,19,02,59,17.10
2013,07,19,03,00,17.10
2013,07,19,03,01,17.00
2013,07,19,03,02,17.00
2013,07,19,03,03,17.00
2013,07,19,03,04,17.00
2013,07,19,03,05,17.00
2013,07,19,03,06,17.00
2013,07,19,03,07,17.00
2013,07,19,03,08,17.00
2013,07,19,03,09,16.90
2013,07,19,03,10,16.90
2013,07,19,03,11,16.90
2013,07,19,03,12,16.90
2013,07,19,03,13,16.90
2013,07,19,03,14,16.90
2013,07,19,03,15,16.90
2013,07,19,03,16,16.90
2013,07,19,03,17,16.90
2013,07,19,03,18,16.90
2013,07,19,03,19,16.90
2013,07,19,03,20,16.90
2013,07,19,03,21,16.90
2013,07,19,03,22,16.90
2013,07,19,03,23,16.90
2013,07,19,03,24,16.90
2013,07,19,03,25,16.90
2013,07,19,03,26,16.90
2013,07,19,03,27,16.90
2013,07,19,03,28,16.90
2013,07,19,03,29,16.90
2013,07,19,03,30,16.90
2013,07,19,03,31,16.80
2013,07,19,03,32,16.80
2013,07,19,03,33,16.80
2013,07,19,03,34,16.80
2013,07,19,03,35,16.80
2013,07,19,03,36,16.80
2013,07,19,03,37,16.80
2013,07,19,03,38,16.80
2013,07,19,03,39,16.80
2013,07,19,03,40,16.80
2013,07,19,03,41,16.80
2013,07,19,03,42,16.80
2013,07,19,03,43,16.80
2013,07,19,03,44,16.80
2013,07,19,03,45,16.80
2013,07,19,03,46,16.80
2013,07,19,03,47,16.80
2013,07,19,03,48,16.90
2013,07,19,03,49,16.90
2013,07,19,03,50,16.90
2013,07,19,03,51,16.90
2013,07,19,03,52,16.90
2013,07,19,03,53,16.90
2013,07,19,03,54,16.90
2013,07,19,03,55,16.90
2013,07,19,03,56,16.90
2013,07,19,03,57,16.90
2013,07,19,03,58,16.90
2013,07,19,03,59,16.90
2013,07,19,04,00,16.90
2013,07,19,04,01,16.90
2013,07,19,04,02,16.90
2013,07,19,04,03,16.90
2013,07,19,04,04,16.90
2013,07,19,04,05,16.90
2013,07,19,04,06,17.00
2013,07,19,04,07,17.00
2013,07,19,04,08,17.00
2013,07,19,04,09,17.00
2013,07,19,04,10,17.10
2013,07,19,04,11,17.10
2013,07,19,04,12,17.10
2013,07,19,04,13,17.10
2013,07,19,04,14,17.10
2013,07,19,04,15,17.20
2013,07,19,04,16,17.20
2013,07,19,04,17,17.30
2013,07,19,04,18,17.30
2013,07,19,04,19,17.30
2013,07,19,04,20,17.30
2013,07,19,04,21,17.30
2013,07,19,04,22,17.30
2013,07,19,04,23,17.30
2013,07,19,04,24,17.40
2013,07,19,04,25,17.30
2013,07,19,04,26,17.30
2013,07,19,04,27,17.30
2013,07,19,04,28,17.30
2013,07,19,04,29,17.40
2013,07,19,04,30,17.40
2013,07,19,04,31,17.40
2013,07,19,04,32,17.40
2013,07,19,04,33,17.40
2013,07,19,04,34,17.40
2013,07,19,04,35,17.40
2013,07,19,04,36,17.50
2013,07,19,04,37,17.50
2013,07,19,04,38,17.50
2013,07,19,04,39,17.50
2013,07,19,04,40,17.50
2013,07,19,04,41,17.50
2013,07,19,04,42,17.50
2013,07,19,04,43,17.60
2013,07,19,04,44,17.60
2013,07,19,04,45,17.60
2013,07,19,04,46,17.60
2013,07,19,04,47,17.60
2013,07,19,04,48,17.60
2013,07,19,04,49,17.60
2013,07,19,04,50,17.60
2013,07,19,04,51,17.60
2013,07,19,04,52,17.60
2013,07,19,04,53,17.60
2013,07,19,04,54,17.60
2013,07,19,04,55,17.60
2013,07,19,04,56,17.60
2013,07,19,04,57,17.60
2013,07,19,04,58,17.60
2013,07,19,04,59,17.60
2013,07,19,05,00,17.60
2013,07,19,05,01,17.60
2013,07,19,05,02,17.60
2013,07,19,05,03,17.60
2013,07,19,05,04,17.50
2013,07,19,05,05,17.50
2013,07,19,05,06,17.50
2013,07,19,05,07,17.50
2013,07,19,05,08,17.50
2013,07,19,05,09,17.50
2013,07,19,05,10,17.60
2013,07,19,05,11,17.60
2013,07,19,05,12,17.50
2013,07,19,05,13,17.60
2013,07,19,05,14,17.50
2013,07,19,05,15,17.60
2013,07,19,05,16,17.60
2013,07,19,05,17,17.50
2013,07,19,05,18,17.60
2013,07,19,05,19,17.50
2013,07,19,05,20,17.60
2013,07,19,05,21,17.60
2013,07,19,05,22,17.60
2013,07,19,05,23,17.60
2013,07,19,05,24,17.60
2013,07,19,05,25,17.60
2013,07,19,05,26,17.60
2013,07,19,05,27,17.60
2013,07,19,05,28,17.60
2013,07,19,05,29,17.60
2013,07,19,05,30,17.60
2013,07,19,05,31,17.50
2013,07,19,05,32,17.50
2013,07,19,05,33,17.50
2013,07,19,05,34,17.50
2013,07,19,05,35,17.50
2013,07,19,05,36,17.50
2013,07,19,05,37,17.50
2013,07,19,05,38,17.50
2013,07,19,05,39,17.50
2013,07,19,05,40,17.50
2013,07,19,05,41,17.40
2013,07,19,05,42,17.40
2013,07,19,05,43,17.40
2013,07,19,05,44,17.40
2013,07,19,05,45,17.40
2013,07,19,05,46,17.40
2013,07,19,05,47,17.40
2013,07,19,05,48,17.40
2013,07,19,05,49,17.40
2013,07,19,05,50,17.40
2013,07,19,05,51,17.40
2013,07,19,05,52,17.40
2013,07,19,05,53,17.40
2013,07,19,05,54,17.40
2013,07,19,05,55,17.40
2013,07,19,05,56,17.40
2013,07,19,05,57,17.40
2013,07,19,05,58,17.40
2013,07,19,05,59,17.40
2013,07,19,06,00,17.40
2013,07,19,06,01,17.40
2013,07,19,06,02,17.40
2013,07,19,06,03,17.40
2013,07,19,06,04,17.40
2013,07,19,06,05,17.40
2013,07,19,06,06,17.40
2013,07,19,06,07,17.40
2013,07,19,06,08,17.40
2013,07,19,06,09,17.40
2013,07,19,06,10,17.40
2013,07,19,06,11,17.40
2013,07,19,06,12,17.40
2013,07,19,06,13,17.40
2013,07,19,06,14,17.30
2013,07,19,06,15,17.30
2013,07,19,06,16,17.30
2013,07,19,06,17,17.30
2013,07,19,06,18,17.30
2013,07,19,06,19,17.30
2013,07,19,06,20,17.30
2013,07,19,06,21,17.30
2013,07,19,06,22,17.30
2013,07,19,06,23,17.30
2013,07,19,06,24,17.30
2013,07,19,06,25,17.30
2013,07,19,06,26,17.30
2013,07,19,06,27,17.30
2013,07,19,06,28,17.30
2013,07,19,06,29,17.30
2013,07,19,06,30,17.30
2013,07,19,06,31,17.30
2013,07,19,06,32,17.30
2013,07,19,06,33,17.30
2013,07,19,06,34,17.30
2013,07,19,06,35,17.30
2013,07,19,06,36,17.30
2013,07,19,06,37,17.30
2013,07,19,06,38,17.20
2013,07,19,06,39,17.30
2013,07,19,06,40,17.30
2013,07,19,06,41,17.30
2013,07,19,06,42,17.30
2013,07,19,06,43,17.30
2013,07,19,06,44,17.30
2013,07,19,06,45,17.30
2013,07,19,06,46,17.30
2013,07,19,06,47,17.30
2013,07,19,06,48,17.30
2013,07,19,06,49,17.30
2013,07,19,06,50,17.40
2013,07,19,06,51,17.40
2013,07,19,06,52,17.40
2013,07,19,06,53,17.40
2013,07,19,06,54,17.40
2013,07,19,06,55,17.40
2013,07,19,06,56,17.50
2013,07,19,06,57,17.50
2013,07,19,06,58,17.50
2013,07,19,06,59,17.50
2013,07,19,07,00,17.60
2013,07,19,07,01,17.60
2013,07,19,07,02,17.60
2013,07,19,07,03,17.60
2013,07,19,07,04,17.60
2013,07,19,07,05,17.60
2013,07,19,07,06,17.60
2013,07,19,07,07,17.70
2013,07,19,07,08,17.70
2013,07,19,07,09,17.70
2013,07,19,07,10,17.70
2013,07,19,07,11,17.80
2013,07,19,07,12,17.80
2013,07,19,07,13,17.80
2013,07,19,07,14,17.80
2013,07,19,07,15,17.80
2013,07,19,07,16,17.80
2013,07,19,07,17,17.80
2013,07,19,07,18,17.80
2013,07,19,07,19,17.80
2013,07,19,07,20,17.80
2013,07,19,07,21,17.80
2013,07,19,07,22,17.80
2013,07,19,07,23,17.80
2013,07,19,07,24,17.80
2013,07,19,07,25,17.80
2013,07,19,07,26,17.80
2013,07,19,07,27,17.80
2013,07,19,07,28,17.80
2013,07,19,07,29,17.80
2013,07,19,07,30,17.80
2013,07,19,07,31,17.80
2013,07,19,07,32,17.80
2013,07,19,07,33,17.80
2013,07,19,07,34,17.90
2013,07,19,07,35,17.90
2013,07,19,07,36,17.90
2013,07,19,07,37,17.90
2013,07,19,07,38,17.90
2013,07,19,07,39,18.00
2013,07,19,07,40,18.00
2013,07,19,07,41,18.00
2013,07,19,07,42,18.00
2013,07,19,07,43,18.10
2013,07,19,07,44,18.10
2013,07,19,07,45,18.10
2013,07,19,07,46,18.10
2013,07,19,07,47,18.10
2013,07,19,07,48,18.20
2013,07,19,07,49,18.20
2013,07,19,07,50,18.20
2013,07,19,07,51,18.20
2013,07,19,07,52,18.20
2013,07,19,07,53,18.30
2013,07,19,07,54,18.30
2013,07,19,07,55,18.30
2013,07,19,07,56,18.30
2013,07,19,07,57,18.30
2013,07,19,07,58,18.30
2013,07,19,07,59,18.30
2013,07,19,08,00,18.30
2013,07,19,08,01,18.30
2013,07,19,08,02,18.30
2013,07,19,08,03,18.30
2013,07,19,08,04,18.30
2013,07,19,08,05,18.40
2013,07,19,08,06,18.40
2013,07,19,08,07,18.40
2013,07,19,08,08,18.40
2013,07,19,08,09,18.50
2013,07,19,08,10,18.60
2013,07,19,08,11,18.60
2013,07,19,08,12,18.70
2013,07,19,08,13,18.70
2013,07,19,08,14,18.70
2013,07,19,08,15,18.70
2013,07,19,08,16,18.70
2013,07,19,08,17,18.70
2013,07,19,08,18,18.70
2013,07,19,08,19,18.70
2013,07,19,08,20,18.70
2013,07,19,08,21,18.70
2013,07,19,08,22,18.70
2013,07,19,08,23,18.80
2013,07,19,08,24,18.80
2013,07,19,08,25,18.80
2013,07,19,08,26,18.80
2013,07,19,08,27,18.80
2013,07,19,08,28,18.80
2013,07,19,08,29,18.80
2013,07,19,08,30,18.90
2013,07,19,08,31,18.90
2013,07,19,08,32,18.90
2013,07,19,08,33,19.00
2013,07,19,08,34,19.00
2013,07,19,08,35,19.10
2013,07,19,08,36,19.10
2013,07,19,08,37,19.10
2013,07,19,08,38,19.10
2013,07,19,08,39,19.20
2013,07,19,08,40,19.20
2013,07,19,08,41,19.20
2013,07,19,08,42,19.20
2013,07,19,08,43,19.20
2013,07,19,08,44,19.20
2013,07,19,08,45,19.30
2013,07,19,08,46,19.30
2013,07,19,08,47,19.30
2013,07,19,08,48,19.40
2013,07,19,08,49,19.30
2013,07,19,08,50,19.30
2013,07,19,08,51,19.20
2013,07,19,08,52,19.10
2013,07,19,08,53,19.10
2013,07,19,08,54,19.10
2013,07,19,08,55,19.10
2013,07,19,08,56,19.20
2013,07,19,08,57,19.20
2013,07,19,08,58,19.20
2013,07,19,08,59,19.30
2013,07,19,09,00,19.30
2013,07,19,09,01,19.40
2013,07,19,09,02,19.40
2013,07,19,09,03,19.40
2013,07,19,09,04,19.40
2013,07,19,09,05,19.40
2013,07,19,09,06,19.40
2013,07,19,09,07,19.40
2013,07,19,09,08,19.40
2013,07,19,09,09,19.30
2013,07,19,09,10,19.30
2013,07,19,09,11,19.30
2013,07,19,09,12,19.30
2013,07,19,09,13,19.30
2013,07,19,09,14,19.30
2013,07,19,09,15,19.30
2013,07,19,09,16,19.20
2013,07,19,09,17,19.20
2013,07,19,09,18,19.10
2013,07,19,09,19,19.10
2013,07,19,09,20,19.00
2013,07,19,09,21,19.00
2013,07,19,09,22,19.00
2013,07,19,09,23,19.00
2013,07,19,09,24,19.00
2013,07,19,09,25,19.00
2013,07,19,09,26,19.00
2013,07,19,09,27,19.10
2013,07,19,09,28,19.10
2013,07,19,09,29,19.00
2013,07,19,09,30,19.00
2013,07,19,09,31,19.10
2013,07,19,09,32,19.10
2013,07,19,09,33,19.10
2013,07,19,09,34,19.10
2013,07,19,09,35,19.20
2013,07,19,09,36,19.20
2013,07,19,09,37,19.30
2013,07,19,09,38,19.30
2013,07,19,09,39,19.30
2013,07,19,09,40,19.40
2013,07,19,09,41,19.40
2013,07,19,09,42,19.40
2013,07,19,09,43,19.40
2013,07,19,09,44,19.40
2013,07,19,09,45,19.50
2013,07,19,09,46,19.60
2013,07,19,09,47,19.60
2013,07,19,09,48,19.60
2013,07,19,09,49,19.60
2013,07,19,09,50,19.60
2013,07,19,09,51,19.60
2013,07,19,09,52,19.60
2013,07,19,09,53,19.70
2013,07,19,09,54,19.70
2013,07,19,09,55,19.70
2013,07,19,09,56,19.70
2013,07,19,09,57,19.70
2013,07,19,09,58,19.70
2013,07,19,09,59,19.60
2013,07,19,10,00,19.60
2013,07,19,10,01,19.60
2013,07,19,10,02,19.60
2013,07,19,10,03,19.70
2013,07,19,10,04,19.70
2013,07,19,10,05,19.70
2013,07,19,10,06,19.80
2013,07,19,10,07,19.80
2013,07,19,10,08,19.70
2013,07,19,10,09,19.70
2013,07,19,10,10,19.70
2013,07,19,10,11,19.80
2013,07,19,10,12,19.80
2013,07,19,10,13,19.90
2013,07,19,10,14,20.00
2013,07,19,10,15,20.10
2013,07,19,10,16,20.20
2013,07,19,10,17,20.20
2013,07,19,10,18,20.20
2013,07,19,10,19,20.20
2013,07,19,10,20,20.20
2013,07,19,10,21,20.20
2013,07,19,10,22,20.30
2013,07,19,10,23,20.30
2013,07,19,10,24,20.40
2013,07,19,10,25,20.50
2013,07,19,10,26,20.60
2013,07,19,10,27,20.60
2013,07,19,10,28,20.60
2013,07,19,10,29,20.70
2013,07,19,10,30,20.70
2013,07,19,10,31,20.70
2013,07,19,10,32,20.70
2013,07,19,10,33,20.80
2013,07,19,10,34,20.90
2013,07,19,10,35,20.90
2013,07,19,10,36,20.90
2013,07,19,10,37,20.90
2013,07,19,10,38,21.00
2013,07,19,10,39,21.00
2013,07,19,10,40,21.10
2013,07,19,10,41,21.10
2013,07,19,10,42,21.20
2013,07,19,10,43,21.20
2013,07,19,10,44,21.30
2013,07,19,10,45,21.40
2013,07,19,10,46,21.60
2013,07,19,10,47,21.60
2013,07,19,10,48,21.70
2013,07,19,10,49,21.70
2013,07,19,10,50,21.70
2013,07,19,10,51,21.80
2013,07,19,10,52,21.80
2013,07,19,10,53,21.80
2013,07,19,10,54,21.80
2013,07,19,10,55,21.80
2013,07,19,10,56,21.80
2013,07,19,10,57,21.80
2013,07,19,10,58,21.80
2013,07,19,10,59,21.80
2013,07,19,11,00,21.80
2013,07,19,11,01,21.80
2013,07,19,11,02,21.80
2013,07,19,11,03,21.70
2013,07,19,11,04,21.80
2013,07,19,11,05,21.80
2013,07,19,11,06,21.80
2013,07,19,11,07,21.90
2013,07,19,11,08,21.90
2013,07,19,11,09,21.90
2013,07,19,11,10,22.00
2013,07,19,11,11,22.00
2013,07,19,11,12,22.10
2013,07,19,11,13,22.10
2013,07,19,11,14,22.10
2013,07,19,11,15,22.10
2013,07,19,11,16,22.10
2013,07,19,11,17,22.00
2013,07,19,11,18,21.90
2013,07,19,11,19,21.90
2013,07,19,11,20,21.90
2013,07,19,11,21,21.90
2013,07,19,11,22,21.90
2013,07,19,11,23,21.80
2013,07,19,11,24,21.70
2013,07,19,11,25,21.60
2013,07,19,11,26,21.60
2013,07,19,11,27,21.60
2013,07,19,11,28,21.60
2013,07,19,11,29,21.60
2013,07,19,11,30,21.60
2013,07,19,11,31,21.60
2013,07,19,11,32,21.60
2013,07,19,11,33,21.60
2013,07,19,11,34,21.60
2013,07,19,11,35,21.60
2013,07,19,11,36,21.50
2013,07,19,11,37,21.40
2013,07,19,11,38,21.40
2013,07,19,11,39,21.50
2013,07,19,11,40,21.50
2013,07,19,11,41,21.60
2013,07,19,11,42,21.60
2013,07,19,11,43,21.60
2013,07,19,11,44,21.60
2013,07,19,11,45,21.50
2013,07,19,11,46,21.50
2013,07,19,11,47,21.50
2013,07,19,11,48,21.60
2013,07,19,11,49,21.60
2013,07,19,11,50,21.70
2013,07,19,11,51,21.70
2013,07,19,11,52,21.70
2013,07,19,11,53,21.60
2013,07,19,11,54,21.60
2013,07,19,11,55,21.50
2013,07,19,11,56,21.50
2013,07,19,11,57,21.40
2013,07,19,11,58,21.40
2013,07,19,11,59,21.40
2013,07,19,12,00,21.40
2013,07,19,12,01,21.40
2013,07,19,12,02,21.30
2013,07,19,12,03,21.20
2013,07,19,12,04,21.20
2013,07,19,12,05,21.10
2013,07,19,12,06,21.10
2013,07,19,12,07,21.10
2013,07,19,12,08,21.20
2013,07,19,12,09,21.30
2013,07,19,12,10,21.40
2013,07,19,12,11,21.50
2013,07,19,12,12,21.60
2013,07,19,12,13,21.60
2013,07,19,12,14,21.70
2013,07,19,12,15,21.70
2013,07,19,12,16,21.80
2013,07,19,12,17,21.90
2013,07,19,12,18,21.90
2013,07,19,12,19,21.90
2013,07,19,12,20,21.80
2013,07,19,12,21,21.80
2013,07,19,12,22,21.70
2013,07,19,12,23,21.70
2013,07,19,12,24,21.70
2013,07,19,12,25,21.60
2013,07,19,12,26,21.60
2013,07,19,12,27,21.60
2013,07,19,12,28,21.60
2013,07,19,12,29,21.60
2013,07,19,12,30,21.60
2013,07,19,12,31,21.70
2013,07,19,12,32,21.70
2013,07,19,12,33,21.80
2013,07,19,12,34,21.80
2013,07,19,12,35,21.80
2013,07,19,12,36,21.90
2013,07,19,12,37,21.90
2013,07,19,12,38,22.00
2013,07,19,12,39,22.00
2013,07,19,12,40,22.10
2013,07,19,12,41,22.10
2013,07,19,12,42,22.20
2013,07,19,12,43,22.20
2013,07,19,12,44,22.20
2013,07,19,12,45,22.30
2013,07,19,12,46,22.30
2013,07,19,12,47,22.30
2013,07,19,12,48,22.40
2013,07,19,12,49,22.40
2013,07,19,12,50,22.40
2013,07,19,12,51,22.50
2013,07,19,12,52,22.50
2013,07,19,12,53,22.50
2013,07,19,12,54,22.50
2013,07,19,12,55,22.60
2013,07,19,12,56,22.50
2013,07,19,12,57,22.50
2013,07,19,12,58,22.40
2013,07,19,12,59,22.40
2013,07,19,13,00,22.30
2013,07,19,13,01,22.30
2013,07,19,13,02,22.20
2013,07,19,13,03,22.20
2013,07,19,13,04,22.10
2013,07,19,13,05,22.10
2013,07,19,13,06,22.10
2013,07,19,13,07,22.00
2013,07,19,13,08,22.00
2013,07,19,13,09,22.10
2013,07,19,13,10,22.10
2013,07,19,13,11,22.20
2013,07,19,13,12,22.20
2013,07,19,13,13,22.20
2013,07,19,13,14,22.20
2013,07,19,13,15,22.00
2013,07,19,13,16,21.90
2013,07,19,13,17,21.70
2013,07,19,13,18,21.60
2013,07,19,13,19,21.50
2013,07,19,13,20,21.50
2013,07,19,13,21,21.60
2013,07,19,13,22,21.60
2013,07,19,13,23,21.70
2013,07,19,13,24,21.80
2013,07,19,13,25,21.90
2013,07,19,13,26,21.90
2013,07,19,13,27,21.90
2013,07,19,13,28,22.00
2013,07,19,13,29,22.00
2013,07,19,13,30,21.90
2013,07,19,13,31,21.80
2013,07,19,13,32,21.70
2013,07,19,13,33,21.60
2013,07,19,13,34,21.70
2013,07,19,13,35,21.70
2013,07,19,13,36,21.80
2013,07,19,13,37,21.80
2013,07,19,13,38,21.80
2013,07,19,13,39,21.70
2013,07,19,13,40,21.60
2013,07,19,13,41,21.50
2013,07,19,13,42,21.40
2013,07,19,13,43,21.30
2013,07,19,13,44,21.30
2013,07,19,13,45,21.30
2013,07,19,13,46,21.20
2013,07,19,13,47,21.20
2013,07,19,13,48,21.20
2013,07,19,13,49,21.20
2013,07,19,13,50,21.30
2013,07,19,13,51,21.30
2013,07,19,13,52,21.40
2013,07,19,13,53,21.50
2013,07,19,13,54,21.50
2013,07,19,13,55,21.60
2013,07,19,13,56,21.60
2013,07,19,13,57,21.60
2013,07,19,13,58,21.60
2013,07,19,13,59,21.60
2013,07,19,14,00,21.70
2013,07,19,14,01,21.60
2013,07,19,14,02,21.50
2013,07,19,14,03,21.30
2013,07,19,14,04,21.10
2013,07,19,14,05,20.90
2013,07,19,14,06,20.90
2013,07,19,14,07,20.80
2013,07,19,14,08,20.70
2013,07,19,14,09,20.70
2013,07,19,14,10,20.70
2013,07,19,14,11,20.70
2013,07,19,14,12,20.80
2013,07,19,14,13,20.90
2013,07,19,14,14,21.00
2013,07,19,14,15,21.20
2013,07,19,14,16,21.30
2013,07,19,14,17,21.40
2013,07,19,14,18,21.50
2013,07,19,14,19,21.60
2013,07,19,14,20,21.70
2013,07,19,14,21,21.80
2013,07,19,14,22,21.90
2013,07,19,14,23,22.00
2013,07,19,14,24,22.10
2013,07,19,14,25,22.10
2013,07,19,14,26,22.20
2013,07,19,14,27,22.30
2013,07,19,14,28,22.30
2013,07,19,14,29,22.40
2013,07,19,14,30,22.50
2013,07,19,14,31,22.60
2013,07,19,14,32,22.70
2013,07,19,14,33,22.70
2013,07,19,14,34,22.80
2013,07,19,14,35,22.80
2013,07,19,14,36,22.90
2013,07,19,14,37,22.90
2013,07,19,14,38,22.90
2013,07,19,14,39,22.90
2013,07,19,14,40,22.80
2013,07,19,14,41,22.60
2013,07,19,14,42,22.40
2013,07,19,14,43,22.30
2013,07,19,14,44,22.10
2013,07,19,14,45,22.00
2013,07,19,14,46,22.00
2013,07,19,14,47,21.90
2013,07,19,14,48,21.80
2013,07,19,14,49,21.80
2013,07,19,14,50,21.60
2013,07,19,14,51,21.50
2013,07,19,14,52,21.40
2013,07,19,14,53,21.30
2013,07,19,14,54,21.10
2013,07,19,14,55,21.10
2013,07,19,14,56,21.20
2013,07,19,14,57,21.20
2013,07,19,14,58,21.20
2013,07,19,14,59,21.20
2013,07,19,15,00,21.20
2013,07,19,15,01,21.20
2013,07,19,15,02,21.10
2013,07,19,15,03,21.10
2013,07,19,15,04,21.10
2013,07,19,15,05,21.10
2013,07,19,15,06,21.10
2013,07,19,15,07,21.20
2013,07,19,15,08,21.30
2013,07,19,15,09,21.30
2013,07,19,15,10,21.40
2013,07,19,15,11,21.50
2013,07,19,15,12,21.50
2013,07,19,15,13,21.60
2013,07,19,15,14,21.60
2013,07,19,15,15,21.60
2013,07,19,15,16,21.60
2013,07,19,15,17,21.70
2013,07,19,15,18,21.70
2013,07,19,15,19,21.70
2013,07,19,15,20,21.70
2013,07,19,15,21,21.60
2013,07,19,15,22,21.60
2013,07,19,15,23,21.60
2013,07,19,15,24,21.60
2013,07,19,15,25,21.60
2013,07,19,15,26,21.60
2013,07,19,15,27,21.60
2013,07,19,15,28,21.60
2013,07,19,15,29,21.70
2013,07,19,15,30,21.60
2013,07,19,15,31,21.70
2013,07,19,15,32,21.60
2013,07,19,15,33,21.60
2013,07,19,15,34,21.60
2013,07,19,15,35,21.60
2013,07,19,15,36,21.60
2013,07,19,15,37,21.70
2013,07,19,15,38,21.70
2013,07,19,15,39,21.70
2013,07,19,15,40,21.60
2013,07,19,15,41,21.60
2013,07,19,15,42,21.50
2013,07,19,15,43,21.50
2013,07,19,15,44,21.40
2013,07,19,15,45,21.40
2013,07,19,15,46,21.40
2013,07,19,15,47,21.50
2013,07,19,15,48,21.50
2013,07,19,15,49,21.60
2013,07,19,15,50,21.60
2013,07,19,15,51,21.70
2013,07,19,15,52,21.70
2013,07,19,15,53,21.70
2013,07,19,15,54,21.70
2013,07,19,15,55,21.70
2013,07,19,15,56,21.70
2013,07,19,15,57,21.60
2013,07,19,15,58,21.60
2013,07,19,15,59,21.60
2013,07,19,16,00,21.50
2013,07,19,16,01,21.40
2013,07,19,16,02,21.40
2013,07,19,16,03,21.40
2013,07,19,16,04,21.40
2013,07,19,16,05,21.40
2013,07,19,16,06,21.40
2013,07,19,16,07,21.40
2013,07,19,16,08,21.40
2013,07,19,16,09,21.40
2013,07,19,16,10,21.40
2013,07,19,16,11,21.40
2013,07,19,16,12,21.40
2013,07,19,16,13,21.30
2013,07,19,16,14,21.30
2013,07,19,16,15,21.30
2013,07,19,16,16,21.40
2013,07,19,16,17,21.40
2013,07,19,16,18,21.40
2013,07,19,16,19,21.40
2013,07,19,16,20,21.50
2013,07,19,16,21,21.60
2013,07,19,16,22,21.60
2013,07,19,16,23,21.60
2013,07,19,16,24,21.60
2013,07,19,16,25,21.60
2013,07,19,16,26,21.60
2013,07,19,16,27,21.60
2013,07,19,16,28,21.60
2013,07,19,16,29,21.70
2013,07,19,16,30,21.70
2013,07,19,16,31,21.60
2013,07,19,16,32,21.60
2013,07,19,16,33,21.70
2013,07,19,16,34,21.80
2013,07,19,16,35,21.80
2013,07,19,16,36,21.80
2013,07,19,16,37,21.80
2013,07,19,16,38,21.80
2013,07,19,16,39,21.80
2013,07,19,16,40,21.80
2013,07,19,16,41,21.80
2013,07,19,16,42,21.80
2013,07,19,16,43,21.80
2013,07,19,16,44,21.80
2013,07,19,16,45,21.80
2013,07,19,16,46,21.80
2013,07,19,16,47,21.80
2013,07,19,16,48,21.80
2013,07,19,16,49,21.80
2013,07,19,16,50,21.80
2013,07,19,16,51,21.80
2013,07,19,16,52,21.80
2013,07,19,16,53,21.80
2013,07,19,16,54,21.80
2013,07,19,16,55,21.80
2013,07,19,16,56,21.80
2013,07,19,16,57,21.80
2013,07,19,16,58,21.90
2013,07,19,16,59,21.90
2013,07,19,17,00,21.90
2013,07,19,17,01,21.90
2013,07,19,17,02,21.80
2013,07,19,17,03,21.90
2013,07,19,17,04,21.80
2013,07,19,17,05,21.80
2013,07,19,17,06,21.90
2013,07,19,17,07,21.90
2013,07,19,17,08,21.90
2013,07,19,17,09,21.90
2013,07,19,17,10,21.90
2013,07,19,17,11,21.90
2013,07,19,17,12,21.90
2013,07,19,17,13,21.90
2013,07,19,17,14,21.90
2013,07,19,17,15,21.80
2013,07,19,17,16,21.80
2013,07,19,17,17,21.80
2013,07,19,17,18,21.80
2013,07,19,17,19,21.90